This demonstration page uses our WeatherBlox Daily Observations layout. Learn more.

36.17497, -115.13722

Hourly Observations for February 25, 2016

Temp ( °F °C ) Dew Point ( °F °C ) Humidity (%) Winds ( mph kmh ) Pressure ( in mb ) Visibility ( mi km ) Precip ( " mm )
12:53 am 00:53 Clear 49 9.4 22 -5.6 35 35 NNW 6 9 30.21 1023 10 16.0934 0 0
1:53 am 01:53 Clear 53 11.7 17 -8.3 24 24 NNW 10 17 30.2 1023 10 16.0934 0 0
2:53 am 02:53 Clear 49 9.4 18 -7.8 29 29 S 5 7 30.2 1023 10 16.0934 0 0
3:53 am 03:53 Clear 46 7.8 20 -6.7 35 35 Calm 30.21 1023 10 16.0934 0 0
4:53 am 04:53 Clear 47 8.3 21 -6.1 36 36 Calm 30.22 1023 10 16.0934 0 0
5:53 am 05:53 Clear 46 7.8 19 -7.2 34 34 NNW 6 9 30.23 1024 10 16.0934 0 0
6:53 am 06:53 Sunny 47 8.3 20 -6.7 34 34 NW 8 13 30.24 1024 10 16.0934 0 0
7:53 am 07:53 Sunny 54 12.2 21 -6.1 28 28 N 3 6 30.26 1025 10 16.0934 0 0
8:53 am 08:53 Sunny 59 15 19 -7.2 21 21 N 5 7 30.26 1025 10 16.0934 0 0
9:53 am 09:53 Sunny 61 16.1 20 -6.7 20 20 Calm 30.26 1025 10 16.0934 0 0
10:53 am 10:53 Sunny 64 17.8 20 -6.7 18 18 Calm 30.25 1024 10 16.0934 0 0
11:53 am 11:53 Sunny 68 20 21 -6.1 17 17 E 5 7 30.22 1023 10 16.0934 0 0
12:53 pm 12:53 Sunny 70 21.1 21 -6.1 16 16 Calm 30.18 1022 10 16.0934 0 0
1:53 pm 13:53 Sunny 70 21.1 22 -5.6 16 16 Calm 30.15 1021 10 16.0934 0 0
2:53 pm 14:53 Sunny 72 22.2 23 -5 16 16 VRB 3 6 30.14 1021 10 16.0934 0 0
3:53 pm 15:53 Sunny 73 22.8 22 -5.6 15 15 Calm 30.13 1020 10 16.0934 0 0
4:53 pm 16:53 Sunny 73 22.8 21 -6.1 14 14 Calm 30.13 1020 10 16.0934 0 0
5:53 pm 17:53 Clear 71 21.7 21 -6.1 15 15 Calm 30.14 1021 10 16.0934 0 0
6:53 pm 18:53 Clear 66 18.9 24 -4.4 20 20 WNW 3 6 30.16 1021 10 16.0934 0 0
7:53 pm 19:53 Clear 62 16.7 24 -4.4 23 23 WNW 6 9 30.16 1022 10 16.0934 0 0
8:53 pm 20:53 Clear 59 15 24 -4.4 26 26 NW 3 6 30.17 1022 10 16.0934 0 0
9:53 pm 21:53 Clear 57 13.9 23 -5 27 27 NW 5 7 30.18 1022 10 16.0934 0 0
10:53 pm 22:53 Clear 57 13.9 23 -5 27 27 Calm 30.17 1022 10 16.0934 0 0
11:53 pm 23:53 Clear 54 12.2 24 -4.4 31 31 WNW 5 7 30.18 1022 10 16.0934 0 0

Powered by AerisWeather